Location: Houston
(29.7630°N, 95.3630°W)
Time: 08:44:13
(UTC-05:00)

Saudisat 1A - Visible Passes

Search period start: 23 June 2017 00:00
Search period end: 03 July 2017 00:00
Orbit: 576 x 616 km, 64.6° (Epoch: 22 June)

Date Brightness Start Highest point End Pass type
(mag) Time Alt. Az. Time Alt. Az. Time Alt. Az.
23 Jun 9.7 04:34:44 17° SSE 04:37:16 28° ESE 04:41:05 10° NE visible
24 Jun 8.5 04:44:53 27° S 04:47:05 57° ESE 04:51:29 10° NE visible
25 Jun 8.0 04:54:57 31° SW 04:57:00 71° WNW 05:01:28 10° NNE visible
26 Jun 10.3 03:28:17 16° ESE 03:28:17 16° ESE 03:30:42 10° ENE visible
26 Jun 8.9 05:04:57 23° WSW 05:06:59 35° WNW 05:11:07 10° N visible
27 Jun 9.5 03:38:14 31° E 03:38:14 31° E 03:41:38 10° NE visible
27 Jun 9.8 05:14:54 14° W 05:17:05 19° NW 05:20:20 10° N visible
28 Jun 8.5 03:48:07 58° ENE 03:48:07 58° ENE 03:51:56 10° NNE visible
28 Jun 10.4 05:26:17 10° WNW 05:27:18 11° NW 05:28:19 10° NW visible
29 Jun 8.4 03:57:57 55° NNW 03:57:57 55° NNW 04:01:50 10° NNE visible
30 Jun 10.9 02:31:05 11° ENE 02:31:05 11° ENE 02:31:25 10° ENE visible
30 Jun 9.3 04:07:44 31° NW 04:07:44 31° NW 04:11:24 10° N visible
01 Jul 10.5 02:40:48 18° NE 02:40:48 18° NE 02:42:09 10° NE visible
01 Jul 10.0 04:17:27 17° NW 04:17:32 17° NW 04:20:31 10° NNW visible
02 Jul 10.2 02:50:29 24° NNE 02:50:29 24° NNE 02:52:21 10° NNE visible
